Flag for U.S.A. Weather past 2 weeks in St. George, Utah, U.S.A.

Now
95 °F

Scattered clouds.


Feels Like: 91 °F
Forecast: 68 / 92 °F
Wind: 9 mph from West

Location: Saint George

Current Time: Sep 1, 2015 at 6:46:48 PM

Latest Report: Sep 1, 2015 at 6:15 PM


Visibility: 10 mi

Pressure: 29.88 "Hg (27.22 "Hg at 842m altitude)

Humidity: 18%

Dew point: 45 °F

Location of St. GeorgeLocation

Historic Weather in St. George — Graph

°F

St. George temperature yesterday

Maximum temperature yesterday: 99 °F (at 3:35 PM)
Minimum temperature yesterday: 73 °F (at 6:55 AM)
Average temperature yesterday: 86 °F

Past Weeks' High & Low Weather Summary

 TemperatureHumidityPressure
High106 °F (Aug 17, 5:15 PM)78% (Aug 26, 8:55 AM)30.22 "Hg (Aug 26, 8:55 AM)
Low68 °F (Aug 27, 7:35 AM)10% (Aug 17, 5:15 PM)29.76 "Hg (Aug 18, 6:15 PM)
Average87 °F28%29.97 "Hg
* Reported Aug 17 5:15 PM — Sep 1 5:35 PM, St. George, Weather by CustomWeather, © 2015

Note: Actual official high and low records may vary slightly from our data, if they occured in-between our weather recording intervals... More about our weather records

Advertising

St. George weather history for previous 24 hours

 ConditionsComfort  
Time TempWeatherWind HumidityBarometerVisibility
5:35 PM
Tue, Sep 1
97 °FScattered clouds.14 mph18%29.88 "Hg10 mi
4:55 PM97 °FScattered clouds.10 mph18%29.89 "Hg10 mi
3:55 PM97 °FSunny.16 mph18%29.91 "Hg10 mi
3:35 PM95 °FSunny.6 mph19%29.92 "Hg10 mi
3:15 PM97 °FSunny.3 mph18%29.93 "Hg10 mi
2:55 PM95 °FSunny.No wind20%29.94 "Hg10 mi
2:35 PM97 °FSunny.7 mph19%29.94 "Hg10 mi
2:15 PM93 °FSunny.6 mph21%29.95 "Hg10 mi
1:55 PM91 °FSunny.6 mph23%29.96 "Hg10 mi
1:35 PM91 °FSunny.3 mph24%29.96 "Hg10 mi
1:15 PM91 °FSunny.5 mph24%29.97 "Hg10 mi
12:55 PM91 °FSunny.No wind24%29.98 "Hg10 mi
12:35 PM90 °FSunny.7 mph26%29.99 "Hg10 mi
12:15 PM90 °FSunny.6 mph27%30.00 "Hg10 mi
11:55 AM90 °FSunny.8 mph27%30.00 "Hg10 mi
11:35 AM90 °FHot.7 mph29%30.01 "Hg10 mi
10:55 AM88 °FSunny.6 mph31%30.02 "Hg10 mi
10:35 AM84 °FSunny.3 mph33%30.02 "Hg10 mi
10:15 AM84 °FSunny.No wind33%30.02 "Hg10 mi
9:55 AM84 °FPassing clouds.6 mph35%30.01 "Hg10 mi
9:35 AM82 °FSunny.3 mph37%30.01 "HgN/A
9:15 AM82 °FSunny.8 mph37%30.01 "HgN/A
8:55 AM81 °FSunny.10 mph39%30.01 "Hg10 mi
8:35 AM79 °FSunny.N/A42%30.01 "Hg10 mi
8:15 AM79 °FSunny.12 mph42%30.01 "Hg10 mi
7:55 AM77 °FClear.15 mph44%30.00 "Hg10 mi
7:35 AM77 °FPassing clouds.12 mph42%30.00 "Hg10 mi
7:15 AM77 °FPassing clouds.9 mph42%29.99 "Hg10 mi
6:55 AM79 °FPassing clouds.12 mph39%29.99 "Hg10 mi
6:35 AM79 °FPassing clouds.14 mph39%29.98 "Hg10 mi
6:15 AM79 °FPassing clouds.13 mph39%29.98 "Hg10 mi
5:55 AM79 °FPassing clouds.15 mph39%29.98 "Hg10 mi
5:35 AM79 °FPassing clouds.16 mph39%29.97 "Hg10 mi
5:15 AM79 °FPassing clouds.8 mph39%29.97 "Hg10 mi
4:55 AM79 °FClear.8 mph42%29.97 "Hg10 mi
4:35 AM81 °FClear.12 mph39%29.96 "Hg10 mi
4:15 AM81 °FPassing clouds.13 mph39%29.96 "Hg10 mi
3:55 AM81 °FPassing clouds.10 mph39%29.96 "Hg10 mi
3:35 AM81 °FPassing clouds.13 mph39%29.96 "Hg10 mi
3:15 AM81 °FPassing clouds.14 mph39%29.95 "Hg10 mi
2:55 AM81 °FPassing clouds.17 mph39%29.95 "Hg10 mi
2:35 AM81 °FPassing clouds.17 mph39%29.95 "Hg10 mi
2:15 AM82 °FPassing clouds.18 mph37%29.96 "Hg10 mi
1:55 AM82 °FPassing clouds.18 mph35%29.96 "Hg10 mi
1:35 AM82 °FPassing clouds.20 mph35%29.95 "Hg10 mi
1:15 AM82 °FPassing clouds.20 mph35%29.95 "Hg10 mi
12:55 AM82 °FPassing clouds.14 mph35%29.95 "Hg10 mi
12:35 AM82 °FPassing clouds.16 mph35%29.94 "Hg10 mi
12:15 AM82 °FClear.15 mph35%29.93 "Hg10 mi
11:55 PM
Mon, Aug 31
84 °FClear.20 mph33%29.93 "Hg10 mi
11:35 PM84 °FClear.18 mph33%29.93 "Hg10 mi
11:15 PM84 °FPassing clouds.16 mph33%29.92 "Hg10 mi
10:55 PM84 °FPassing clouds.18 mph33%29.92 "Hg10 mi
9:35 PM88 °FPassing clouds.18 mph29%29.90 "Hg10 mi
8:55 PM91 °FPartly sunny.14 mph21%29.88 "Hg10 mi
8:35 PM93 °FSunny.8 mph20%29.86 "Hg10 mi
8:15 PM93 °FSunny.7 mph20%29.85 "Hg10 mi
7:55 PM95 °FSunny.7 mph19%29.85 "Hg10 mi
7:35 PM97 °FSunny.8 mph18%29.85 "Hg10 mi
7:15 PM97 °FSunny.9 mph18%29.85 "Hg10 mi
6:55 PM97 °FSunny.7 mph18%29.85 "Hg10 mi
6:35 PM97 °FSunny.6 mph18%29.85 "Hg10 mi
6:15 PM97 °FSunny.6 mph18%29.86 "Hg10 mi
Weather by CustomWeather, © 2015

See weather overviewHow to use our weather pages